Welcome to the New NWS' Forecast!
Most changes are behind the scenes, but click here for differences you might notice.

Regional Weather Roundup (RWR)

Issued by Gray - Portland, ME (GYX)

                            
052 
ASUS41 KGYX 151610
RWRGYX
WEATHER ROUNDUP FOR MAINE AND NEW HAMPSHIRE
NATIONAL WEATHER SERVICE GRAY ME
1200 PM EDT WED AUG 15 2018

MEZ002-005-006-010-012-015-018-020-021-024-026-027-029-151700-
MAINE
  
CITY           SKY/WX    TMP DP  RH WIND       PRES   REMARKS
PORTLAND       CLOUDY    75  70  84 W6        29.84S                  
SANFORD        PTSUNNY   79  71  76 CALM      29.85F                  
BAR HARBOR     CLOUDY    73  68  84 SW9       29.83F                  
WISCASSET      CLOUDY    77  70  79 VRB5      29.84F                  
ROCKLAND       CLOUDY    75  71  87 W5        29.83S                  
FRYEBURG       FAIR      80  70  71 CALM      29.86S                  
LEWISTONAUBURN FAIR      77  69  76 S5        29.84F                  
AUGUSTA        FAIR      78  67  68 NW6       29.84S                  
WATERVILLE     FAIR      78  68  71 CALM      29.81F                  
BANGOR         PTSUNNY   77  69  76 W5        29.82F THUNDER          
GREENVILLE       N/A     78  67  68 SW3       29.82F                  
MILLINOCKET    PTSUNNY   77  67  71 VRB5      29.82S                  
HOULTON        PTSUNNY   79  70  74 SW10      29.77F                  
PRESQUE ISLE   CLOUDY    77  70  78 SW8       29.78F                  
FRENCHVILLE    FAIR      80  68  66 SW7       29.76F                  
CARIBOU        PTSUNNY   77  69  76 SW5       29.76F                  
$$

NHZ002-005-008-009-011-012-014-151700-
NEW HAMPSHIRE
  
CITY           SKY/WX    TMP DP  RH WIND       PRES   REMARKS
PORTSMOUTH     PTSUNNY   79  70  72 W7        29.83S                  
ROCHESTER      FAIR      79  70  74 NW6       29.84S                  
MANCHESTER     NOT AVBL                                               
CONCORD        FAIR      81  69  67 VRB5      29.86S                  
LACONIA        PTSUNNY   80  68  66 W8        29.86S                  
PLYMOUTH       FAIR      81  67  62 W7        29.84F                  
BERLIN         PTSUNNY   77  67  71 VRB6      29.87F                  
WHITEFIELD     PTSUNNY   74  68  81 W3        29.88F                  
JAFFREY        NOT AVBL                                               
LEBANON        FAIR      85  68  56 N8        29.86F                  
MT WASHINGTON  FOG       54  54 100 NW21        N/A  VSB 0            
$$

VTZ005-007-008-151700-
VERMONT
  
CITY           SKY/WX    TMP DP  RH WIND       PRES   REMARKS
ST JOHNSBURY     N/A     75  68  78 MISG      29.86S                  
MONTPELIER     FAIR      75  70  84 CALM      29.93F                  
BURLINGTON     PTSUNNY   83  67  58 S8        29.85F                  
$$

MAZ007-012-024-CTZ003-RIZ002-NYZ038-NYZ072-151700-
SOUTHERN NEW ENGLAND AND NY
  
CITY           SKY/WX    TMP DP  RH WIND       PRES   REMARKS
BOSTON         FAIR      82  69  64 W6        29.84S                  
WORCESTER      FAIR      77  67  71 W9        29.89S                  
NANTUCKET      FAIR      78  71  79 SW15      29.85S                  
PROVIDENCE     PTSUNNY   82  68  62 NW8       29.86R                  
HARTFORD       PTSUNNY   82  68  62 W3        29.87S                  
ALBANY         FAIR      82  68  62 W8        29.90S                  
NEW YORK CITY  FAIR      85  65  51 NW10      29.90S                  
$$

ANZ081-ANZ082-ANZ150-NHZ014-MEZ023>029-151700-
COASTAL MARINE OBSERVATIONS
  
STATION/POSITION TIME  TEMP    WIND        PRES    WAVE
                       AIR SEA DIR/SP/G            HT/PER
                 (UTC) (F)     (DEG/KT/KT) (MB)    (FT/S)
MOUNT DESERT ROC 1600   67     180/  8/  8 1010.3F
MATINICUS ROCK   1500   68     240/  6/  7 1010.1F
ISLE OF SHOALS   1500   69     260/  5/  6 1010.3R
JEFFREYS LEDGE   1536      70                N/A     2/ 7
$$

.............KEY..............
   WCI - WIND CHILL
   TC  - TEMPERATURE IN CELSIUS
   VSB - VISIBILITY IN MILES
   HX  - HEAT INDEX
   FAIR- INDICATES FEW OR NO CLOUDS BELOW 12,000 FT, WITH NO 
         SIGNIFICANT WEATHER AND/OR OBSTRUCTIONS TO VISIBILITY.